Home > Weather > Dindigul > Past weeks

Flag for India Weather for the Past 2 Weeks in Dindigul, Tamil Nadu, India

Now
100 °F

Scattered clouds.


Feels Like: 112 °F
Forecast: 76 / 99 °F
Wind: No wind

Location: Tiruchchirapalli

Current Time: May 6, 2016 at 12:57:36 PM

Latest Report: May 6, 2016 at 12:30 PM


Visibility: 5 mi

Pressure: 29.77 "Hg

Humidity: 42%

Dew Point: 73 °F

Location of DindigulLocation

Historic Weather in Dindigul — Graph

°F

Dindigul Temperature Yesterday

Maximum temperature yesterday: 102 °F (at 2:00 PM)
Minimum temperature yesterday: 84 °F (at 3:00 AM)
Average temperature yesterday: 91 °F

High & Low Weather Summary for the Past Weeks

 TemperatureHumidityPressure
High108 °F (Apr 22, 3:00 PM)84% (Apr 25, 3:00 AM)29.86 "Hg (Apr 25, 3:00 AM)
Low82 °F (Apr 26, 5:30 AM)28% (Apr 29, 3:30 PM)29.56 "Hg (Apr 24, 3:00 PM)
Average93 °F57%29.74 "Hg
* Reported Apr 21 11:30 AM — May 6 11:30 AM, Dindigul, Weather by CustomWeather, © 2016

Note: Actual official high and low records may vary slightly from our data, if they occured in-between our weather recording intervals... More about our weather records

Advertising

Dindigul Weather History for the Previous 24 Hours

Scroll right to see more
 ConditionsComfort  
Time TempWeatherWind HumidityBarometerVisibility
11:30 AM
Fri, May 6
99 °FScattered clouds.6 mph47%29.83 "Hg4 mi
11:00 AM99 °FPassing clouds.5 mph50%29.83 "Hg4 mi
10:30 AM97 °FPassing clouds.5 mph53%29.83 "Hg4 mi
10:00 AM95 °FPassing clouds.6 mph56%29.83 "Hg4 mi
9:30 AM93 °FHaze.6 mph59%29.83 "Hg3 mi
9:00 AM91 °FHaze.5 mph63%29.83 "Hg3 mi
8:30 AM90 °FHaze.5 mph67%29.83 "Hg3 mi
8:00 AM88 °FHaze.5 mph66%29.80 "Hg2 mi
7:30 AM88 °FHaze.5 mph66%29.80 "Hg2 mi
7:00 AM86 °FFog.No wind75%29.80 "Hg2 mi
6:30 AM84 °FFog.No wind79%29.77 "Hg2 mi
6:00 AM84 °FFog.No wind79%29.77 "Hg2 mi
5:30 AM84 °FFog.No wind79%29.77 "Hg3 mi
5:00 AM84 °FHaze.No wind74%29.77 "Hg3 mi
4:30 AM84 °FPassing clouds.3 mph74%29.74 "Hg4 mi
4:00 AM86 °FPassing clouds.2 mph70%29.74 "Hg4 mi
3:30 AM86 °FPassing clouds.3 mph70%29.77 "Hg4 mi
3:00 AM86 °FPassing clouds.3 mph70%29.77 "Hg4 mi
2:30 AM86 °FPassing clouds.5 mph70%29.77 "Hg4 mi
2:00 AM86 °FPassing clouds.2 mph70%29.77 "Hg4 mi
1:30 AM86 °FPassing clouds.3 mph70%29.77 "Hg4 mi
1:00 AM86 °FPassing clouds.3 mph70%29.77 "Hg4 mi
12:30 AM88 °FPassing clouds.3 mph66%29.80 "Hg4 mi
12:00 AM88 °FPassing clouds.3 mph66%29.80 "Hg4 mi
11:30 PM
Thu, May 5
88 °FPassing clouds.5 mph66%29.83 "Hg4 mi
11:00 PM88 °FPassing clouds.6 mph66%29.83 "Hg4 mi
10:30 PM88 °FPassing clouds.7 mph66%29.83 "Hg4 mi
10:00 PM90 °FPassing clouds.7 mph63%29.83 "Hg4 mi
9:30 PM90 °FPassing clouds.8 mph63%29.80 "Hg4 mi
9:00 PM90 °FPassing clouds.10 mph63%29.80 "Hg4 mi
8:30 PM90 °FPassing clouds.9 mph63%29.77 "Hg4 mi
8:00 PM90 °FPassing clouds.12 mph59%29.77 "Hg4 mi
7:30 PM91 °FPassing clouds.12 mph56%29.74 "Hg4 mi
7:00 PM91 °FPassing clouds.10 mph56%29.71 "Hg4 mi
6:30 PM91 °FPassing clouds.10 mph56%29.68 "Hg4 mi
6:00 PM91 °FPassing clouds.6 mph56%29.68 "Hg4 mi
5:30 PM93 °FScattered clouds.9 mph49%29.68 "Hg5 mi
5:00 PM95 °FScattered clouds.10 mph50%29.68 "Hg5 mi
4:30 PM99 °FScattered clouds.10 mph42%29.65 "HgN/A
4:00 PM100 °FScattered clouds.10 mph35%29.65 "HgN/A
3:30 PM102 °FScattered clouds.5 mph35%29.68 "HgN/A
3:00 PM102 °FScattered clouds.3 mph35%29.68 "HgN/A
2:30 PM102 °FScattered clouds.2 mph35%29.68 "HgN/A
2:00 PM102 °FScattered clouds.2 mph35%29.71 "HgN/A
1:30 PM100 °FExtremely hot.N/A37%29.71 "HgN/A
1:00 PM100 °FScattered clouds.5 mph40%29.74 "HgN/A
12:30 PM100 °FScattered clouds.5 mph40%29.77 "HgN/A
12:00 PM99 °FScattered clouds.6 mph42%29.80 "HgN/A
Weather by CustomWeather, © 2016

See weather overviewHow to use our weather pages